Weather History for KPGD - April, 2014

Change the Weather History Date:

Saturday, April 12, 2014

  Actual Average (KFMY) Record (KFMY)
Temperature  
Mean Temperature 75 °F 73 °F  
Max Temperature 87 °F 84 °F 92 °F (1979)
Min Temperature 63 °F 63 °F 48 °F (1973)
Degree Days  
Heating Degree Days 0 0  
Month to date heating degree days 0  
Since 1 July heating degree days 284  
Cooling Degree Days 10 8  
Month to date cooling degree days 92  
Year to date cooling degree days 453  
Growing Degree Days 25 (Base 50)    
Moisture  
Dew Point 61 °F    
Average Humidity 66    
Maximum Humidity 93    
Minimum Humidity 34    
Precipitation  
Precipitation 0.00 in 0.07 in 1.65 in (1915)
Month to date precipitation 0.92  
Year to date precipitation 7.89  
Sea Level Pressure  
Sea Level Pressure 30.14 in    
Wind  
Wind Speed 8 mph (East)    
Max Wind Speed 16 mph    
Max Gust Speed 24 mph    
Visibility 9 miles    
Events      
T = Trace of Precipitation, MM = Missing Value Source: NWS Daily Summary

Daily Weather History Graph

Daily Weather History Graph

Search for Another Location

Airport or City:

Trip Planner

Search our weather history database for the weather conditions in past years. The results will help you decide how hot, cold, wet, or windy it might be!

Date:

Astronomy

Apr. 12, 2014 Rise Set
Actual Time 7:07 AM EDT 7:50 PM EDT
Civil Twilight 6:43 AM EDT 8:14 PM EDT
Nautical Twilight 6:15 AM EDT 8:42 PM EDT
Astronomical Twilight 5:47 AM EDT 9:10 PM EDT
Moon 5:39 PM EDT (4/12) 5:18 AM EDT (4/12)
Length of Visible Light 13h 31m
Length of Day
12h 43m
Waxing Gibbous, 93% of the Moon is Illuminated
Apr 12
Waxing Gibbous
Apr 15
Full
Apr 22
Last Quarter
Apr 29
New
May 6
First Quarter

Hourly Weather History & Observations

Time (EDT) Temp. Heat Index Dew Point Humidity Pressure Visibility Wind Dir Wind Speed Gust Speed Precip Events Conditions
12:53 AM 70.0 °F - 64.9 °F 84% 30.16 in 10.0 mi East 8.1 mph - N/A   Mostly Cloudy
1:53 AM 70.0 °F - 64.9 °F 84% 30.15 in 10.0 mi East 8.1 mph - N/A   Overcast
2:53 AM 69.1 °F - 64.9 °F 87% 30.14 in 10.0 mi East 3.5 mph - N/A   Overcast
3:53 AM 66.9 °F - 64.9 °F 93% 30.14 in 10.0 mi East 4.6 mph - N/A   Mostly Cloudy
4:53 AM 64.9 °F - 63.0 °F 93% 30.14 in 7.0 mi ENE 6.9 mph - N/A   Partly Cloudy
5:53 AM 64.0 °F - 62.1 °F 93% 30.15 in 5.0 mi ENE 4.6 mph - N/A   Mostly Cloudy
6:53 AM 63.0 °F - 61.0 °F 93% 30.17 in 4.0 mi ENE 4.6 mph - N/A   Clear
7:53 AM 64.9 °F - 63.0 °F 93% 30.18 in 7.0 mi East 5.8 mph - N/A   Clear
8:53 AM 71.1 °F - 66.0 °F 84% 30.19 in 10.0 mi East 8.1 mph - N/A   Clear
9:53 AM 75.9 °F - 66.0 °F 71% 30.21 in 10.0 mi East 8.1 mph - N/A   Partly Cloudy
10:53 AM 80.1 °F 81.9 °F 64.9 °F 60% 30.21 in 10.0 mi East 11.5 mph 19.6 mph N/A   Clear
11:53 AM 82.0 °F 83.1 °F 63.0 °F 52% 30.19 in 10.0 mi ESE 11.5 mph - N/A   Mostly Cloudy
12:53 PM 82.9 °F 84.0 °F 63.0 °F 51% 30.17 in 10.0 mi ENE 8.1 mph - N/A   Scattered Clouds
1:53 PM 84.9 °F 84.4 °F 59.0 °F 41% 30.14 in 10.0 mi East 15.0 mph 24.2 mph N/A   Partly Cloudy
2:53 PM 86.0 °F 85.4 °F 59.0 °F 40% 30.13 in 10.0 mi NE 11.5 mph - N/A   Clear
3:53 PM 86.0 °F 85.4 °F 59.0 °F 40% 30.10 in 10.0 mi East 15.0 mph - N/A   Scattered Clouds
4:53 PM 87.1 °F 85.7 °F 55.9 °F 35% 30.08 in 10.0 mi ENE 16.1 mph - N/A   Partly Cloudy
5:53 PM 84.9 °F 83.3 °F 54.0 °F 34% 30.08 in 10.0 mi ENE 12.7 mph - N/A   Scattered Clouds
6:53 PM 82.9 °F 82.0 °F 55.0 °F 38% 30.09 in 10.0 mi East 11.5 mph - N/A   Mostly Cloudy
7:53 PM 78.1 °F - 57.0 °F 48% 30.11 in 10.0 mi East 12.7 mph - N/A   Partly Cloudy
8:53 PM 73.9 °F - 57.0 °F 55% 30.12 in 10.0 mi East 9.2 mph - N/A   Clear
9:53 PM 71.1 °F - 57.9 °F 63% 30.14 in 10.0 mi ENE 9.2 mph - N/A   Clear
10:53 PM 70.0 °F - 59.0 °F 68% 30.14 in 10.0 mi East 9.2 mph - N/A   Clear
11:53 PM 64.9 °F - 59.0 °F 81% 30.14 in 10.0 mi East 6.9 mph - N/A   Clear